[[{"header":{"parameterUnit":"m.s-1","parameterCategory":1,"la1":30.2991,"la2":30.254,"lo1":-89.0895,"lo2":-89.0444,"dy":0.0017,"dx":0.0017,"nx":28,"ny":28,"refTime":"2025-11-27T09:00:00:Z","depth":0,"parameterNumber":2,"parameterNumberName":"U-component_of_WINDS"},"data":[0,0,0,0,0,0,0,0,0,0,0,0,0,0,0,0,0,0,0,0,0,0,0,0,0,0,0,0,0,0,0,0,0,0,0,0,0,0,0,0,0,0,0,0,0,0,0,0,0,0,0,0,0,0,0,0,0,0,-3.0506,-3.0506,0,-3.0488,-3.0488,-3.0488,-3.0421,-3.042,-3.0418,-3.0417,-3.0399,-3.04,-3.0401,0,0,0,0,0,0,0,0,0,0,0,0,0,-3.0484,-3.0485,-3.0506,-3.0506,-3.0506,-3.0488,-3.0488,-3.0488,-3.0421,-3.0419,-3.0418,-3.0416,-3.0399,-3.04,-3.0401,0,0,0,0,0,0,0,0,0,0,0,0,0,-3.0483,-3.0485,-3.0506,-3.0471,-3.0467,-3.0488,-3.0488,-3.0488,-3.0422,-3.0419,-3.0417,-3.0415,-3.0399,-3.04,-3.0402,-3.0456,0,0,-3.0406,-3.0407,0,0,0,0,0,0,0,0,-3.0483,-3.0484,-3.0476,-3.0473,-3.0469,-3.0455,-3.0474,-3.0477,-3.0422,-3.0439,-3.0417,-3.0414,-3.042,-3.0419,-3.0421,-3.0456,-3.0455,-3.0406,-3.0407,-3.0408,-3.0408,0,0,0,0,0,0,0,-3.0483,-3.0484,-3.0499,-3.0476,-3.0472,-3.0456,-3.0453,-3.0474,-3.0443,-3.0437,-3.0432,-3.0431,-3.0417,-3.042,-3.042,-3.0455,-3.0406,-3.0407,-3.0408,-3.0409,-3.0534,-3.0536,0,0,0,0,0,0,-3.0488,-3.0485,-3.05,-3.0499,-3.0471,-3.0458,-3.0455,-3.0462,-3.0442,-3.0437,-3.0433,-3.0428,-3.0418,-3.0418,-3.0419,-3.0483,-3.0408,-3.0409,-3.041,-3.0532,-3.0535,-3.0537,0,0,0,0,0,0,-3.0488,-3.049,-3.0501,-3.049,-3.0491,-3.0461,-3.0469,-3.0463,-3.0465,-3.0439,-3.0433,-3.0441,-3.0417,-3.0417,-3.0448,-3.0481,-3.041,-3.0411,-3.0529,-3.0533,-3.0536,-3.061,0,0,0,0,0,0,-3.0488,-3.0491,-3.0511,-3.0491,-3.0491,-3.0529,-3.0471,-3.0464,-3.0467,-3.0461,-3.0445,-3.044,-3.0415,-3.0446,-3.0449,-3.0482,-3.0412,-3.0526,-3.053,-3.0535,-3.0605,-3.0616,-3.0626,0,0,0,0,0,-3.0487,-3.0533,-3.0512,-3.0515,-3.0516,-3.0531,-3.0531,-3.0501,-3.047,-3.0491,-3.0474,-3.0441,-3.0477,-3.045,-3.0453,-3.0486,-3.0523,-3.0529,-3.0534,-3.06,-3.0614,-3.0625,0,0,0,0,0,0,-3.0557,-3.0529,-3.0507,-3.0547,-3.0542,-3.052,-3.0545,-3.0516,-3.052,-3.0514,-3.0476,-3.0473,-3.051,-3.0501,-3.0471,-3.0539,-3.0495,-3.0501,-3.0543,-3.0556,-3.0567,-3.0568,-3.0413,0,0,0,0,0,-3.0577,-3.0592,-3.0567,-3.0605,-3.0603,-3.0575,-3.058,-3.0557,-3.0551,-3.0548,-3.0534,-3.0529,-3.054,-3.0547,-3.0555,-3.0603,-3.0599,-3.0628,-3.0638,-3.0647,-3.0653,-3.0678,-3.0691,-3.0555,-3.0555,-3.0555,0,0,-3.0619,-3.0606,-3.0617,-3.0619,-3.0612,-3.0628,-3.0573,-3.0593,-3.0605,-3.0551,-3.0579,-3.0569,-3.0561,-3.0601,-3.0617,-3.0595,-3.069,-3.0654,-3.0661,-3.0663,-3.0685,-3.0698,-3.071,-3.0559,-3.0559,-3.0558,0,0,-3.0704,-3.0695,-3.0726,-3.072,-3.0711,-3.0691,-3.0699,-3.0681,-3.0672,-3.07,-3.066,-3.0674,-3.0692,-3.0689,-3.0689,-3.0773,-3.0743,-3.0777,-3.0832,-3.0857,-3.0868,-3.0877,-3.0908,-3.0919,-3.0783,-3.0783,-3.0783,0,-3.0757,-3.0779,-3.0745,-3.0767,-3.077,-3.0722,-3.0753,-3.075,-3.0744,-3.0747,-3.0721,-3.0743,-3.0735,-3.0773,-3.0794,-3.0795,-3.0804,-3.0779,-3.0869,-3.0878,-3.0886,-3.0915,-3.0927,-3.0787,-3.0787,-3.0786,-3.0786,0,-3.0846,-3.0862,-3.0888,-3.0884,-3.0889,-3.0915,-3.0886,-3.0895,-3.0872,-3.0855,-3.0884,-3.0872,-3.0877,-3.0885,-3.0862,-3.092,-3.0906,-3.0875,-3.083,-3.0904,-3.093,-3.0941,-3.0793,-3.0792,-3.0791,-3.079,0,0,-3.0974,-3.095,-3.0961,-3.0958,-3.0945,-3.0957,-3.0982,-3.0986,-3.0995,-3.0993,-3.1013,-3.103,-3.1001,-3.1002,-3.0979,-3.1001,-3.1069,-3.0967,-3.0966,-3.0987,-3.1133,-3.1157,-3.1171,-3.1048,-3.105,-3.1052,-3.1134,0,-3.1056,-3.1096,-3.1066,-3.1113,-3.1128,-3.1083,-3.1104,-3.1099,-3.1084,-3.1095,-3.1079,-3.1092,-3.1052,-3.1053,-3.1072,-3.1056,-3.1098,-3.105,-3.1068,-3.1069,-3.1072,-3.1184,-3.121,-3.1288,-3.1144,-3.1146,-3.1147,0,-3.1156,-3.1158,-3.1206,-3.1189,-3.1194,-3.1214,-3.1217,-3.1227,-3.122,-3.1208,-3.1209,-3.118,-3.1204,-3.1159,-3.1192,-3.116,-3.1166,-3.1159,-3.1161,-3.1162,-3.1113,-3.119,-3.1312,-3.1324,-3.1163,-3.1162,-3.1161,0,-3.1246,-3.126,-3.1291,-3.129,-3.1272,-3.1287,-3.128,-3.127,-3.1275,-3.1277,-3.128,-3.1285,-3.1288,-3.1293,-3.1266,-3.1236,-3.1303,-3.1256,-3.1294,-3.1295,-3.1311,-3.1311,-3.1437,-3.1313,-3.1313,-3.1313,-3.1313,0,-3.134,-3.1372,-3.1331,-3.135,-3.1384,-3.135,-3.1384,-3.1372,-3.1365,-3.1381,-3.1342,-3.1358,-3.1321,-3.1334,-3.1313,-3.1344,-3.1346,-3.1337,-3.1331,-3.1341,-3.1342,-3.1345,-3.1339,-3.1316,-3.1315,-3.1315,-3.1314,0,-3.1447,-3.1421,-3.1452,-3.1432,-3.1427,-3.1453,-3.1436,-3.1453,-3.1436,-3.1457,-3.146,-3.1433,-3.1446,-3.142,-3.1429,-3.1415,-3.1459,-3.1444,-3.1462,-3.1458,-3.1498,-3.1495,-3.1631,-3.1648,-3.1513,-3.1514,-3.1515,0,-3.1509,-3.1532,-3.1515,-3.1523,-3.1518,-3.1531,-3.1536,-3.1503,-3.151,-3.1503,-3.1521,-3.1531,-3.1537,-3.156,-3.1542,-3.1549,-3.1534,-3.1582,-3.1535,-3.1545,-3.1536,-3.1536,-3.1538,-3.1592,-3.1593,-3.1595,-3.1596,0,-3.1623,-3.1609,-3.1617,-3.1622,-3.1628,-3.163,-3.1629,-3.1638,-3.1602,-3.1612,-3.1625,-3.1629,-3.1639,-3.1649,-3.1652,-3.1645,-3.1616,-3.161,-3.162,-3.1631,-3.164,-3.1636,-3.1489,-3.1608,-3.1606,-3.1606,-3.1605,-3.1604,-3.171,-3.1729,-3.1719,-3.173,-3.1726,-3.1726,-3.1741,-3.1725,-3.1735,-3.174,-3.172,-3.1737,-3.173,-3.1731,-3.1727,-3.1741,-3.172,-3.1733,-3.1737,-3.1741,-3.1748,-3.1637,-3.1741,-3.1741,-3.174,-3.174,-3.174,0,-3.1823,-3.1814,-3.1824,-3.1824,-3.1833,-3.1803,-3.18,-3.1809,-3.1825,-3.182,-3.1827,-3.1842,-3.1852,-3.1834,-3.1842,-3.1856,-3.1843,-3.1859,-3.1858,-3.1857,-3.1766,-3.1757,-3.187,-3.187,-3.187,-3.187,-3.187,-3.187,-3.1882,-3.1913,-3.1898,-3.1925,-3.1917,-3.1933,-3.1934,-3.1934,-3.1931,-3.1949,-3.1957,-3.1945,-3.1936,-3.1942,-3.195,-3.1945,-3.195,-3.1971,-3.1962,-3.1876,-3.1864,-3.1852,-3.1843,-3.1972,-3.1973,-3.2052,-3.2053,-3.2053]},{"header":{"parameterUnit":"m.s-1","parameterCategory":1,"la1":30.2991,"la2":30.254,"lo1":-89.0895,"lo2":-89.0444,"dy":0.0017,"dx":0.0017,"nx":28,"ny":28,"refTime":"2025-11-27T09:00:00:Z","depth":0,"parameterNumber":3,"parameterNumberName":"V-component_of_WINDS"},"data":[0,0,0,0,0,0,0,0,0,0,0,0,0,0,0,0,0,0,0,0,0,0,0,0,0,0,0,0,0,0,0,0,0,0,0,0,0,0,0,0,0,0,0,0,0,0,0,0,0,0,0,0,0,0,0,0,0,0,-4.6682,-4.6683,0,-4.6752,-4.6753,-4.6754,-4.673,-4.6728,-4.6727,-4.6726,-4.6793,-4.6797,-4.68,0,0,0,0,0,0,0,0,0,0,0,0,0,-4.6526,-4.6529,-4.6682,-4.6683,-4.6684,-4.6752,-4.6753,-4.6754,-4.673,-4.6728,-4.6727,-4.6725,-4.6792,-4.6796,-4.68,0,0,0,0,0,0,0,0,0,0,0,0,0,-4.6595,-4.653,-4.6682,-4.6681,-4.6681,-4.6752,-4.6753,-4.6754,-4.6731,-4.6728,-4.6726,-4.6724,-4.6791,-4.6796,-4.6801,-4.6876,0,0,-4.6815,-4.6817,0,0,0,0,0,0,0,0,-4.6591,-4.66,-4.668,-4.6681,-4.6682,-4.673,-4.6723,-4.6795,-4.6731,-4.6712,-4.6725,-4.6723,-4.6774,-4.678,-4.6798,-4.6879,-4.6882,-4.6816,-4.6819,-4.6821,-4.6822,0,0,0,0,0,0,0,-4.6586,-4.6597,-4.671,-4.6681,-4.6682,-4.6675,-4.6683,-4.6736,-4.6755,-4.6713,-4.6712,-4.672,-4.6774,-4.6793,-4.6799,-4.6883,-4.6816,-4.682,-4.6823,-4.6825,-4.7029,-4.7032,0,0,0,0,0,0,-4.6581,-4.6593,-4.6708,-4.6712,-4.663,-4.668,-4.6688,-4.6717,-4.6754,-4.6758,-4.6722,-4.6719,-4.6786,-4.6794,-4.6802,-4.6893,-4.6821,-4.6825,-4.6828,-4.7027,-4.703,-4.7033,0,0,0,0,0,0,-4.6578,-4.6592,-4.6705,-4.6652,-4.6666,-4.6685,-4.6717,-4.6719,-4.6739,-4.6761,-4.6764,-4.6739,-4.6785,-4.6795,-4.6858,-4.6895,-4.6827,-4.6832,-4.7024,-4.7028,-4.7031,-4.7075,0,0,0,0,0,0,-4.6574,-4.6591,-4.662,-4.6653,-4.6669,-4.6761,-4.672,-4.6722,-4.6748,-4.6744,-4.6777,-4.6781,-4.6784,-4.6851,-4.6863,-4.69,-4.6836,-4.7021,-4.7026,-4.703,-4.7071,-4.708,-4.7088,0,0,0,0,0,-4.6568,-4.6629,-4.6622,-4.6636,-4.6707,-4.6763,-4.6772,-4.6775,-4.6751,-4.678,-4.6794,-4.678,-4.6889,-4.6857,-4.6871,-4.691,-4.7018,-4.7024,-4.703,-4.7067,-4.7078,-4.7088,0,0,0,0,0,0,-4.6598,-4.6633,-4.6626,-4.6699,-4.6729,-4.6759,-4.6796,-4.6787,-4.6823,-4.6819,-4.682,-4.6828,-4.6893,-4.6907,-4.6872,-4.6985,-4.695,-4.6958,-4.6973,-4.6984,-4.6993,-4.6988,-4.684,0,0,0,0,0,-4.6614,-4.6658,-4.6685,-4.6747,-4.6763,-4.6777,-4.6802,-4.6802,-4.6832,-4.6844,-4.6863,-4.6891,-4.6932,-4.6959,-4.6997,-4.7072,-4.7079,-4.7106,-4.7115,-4.7122,-4.7129,-4.7171,-4.7183,-4.7051,-4.7051,-4.7051,0,0,-4.6646,-4.667,-4.6698,-4.6754,-4.6777,-4.6822,-4.6788,-4.6836,-4.6869,-4.6851,-4.6912,-4.6927,-4.6959,-4.7028,-4.706,-4.7043,-4.7167,-4.7129,-4.7135,-4.7138,-4.7178,-4.719,-4.7201,-4.7055,-4.7055,-4.7054,0,0,-4.6727,-4.675,-4.6805,-4.6829,-4.6864,-4.6873,-4.6886,-4.6918,-4.6928,-4.699,-4.6977,-4.7015,-4.7086,-4.7109,-4.713,-4.7221,-4.7209,-4.7234,-4.728,-4.732,-4.733,-4.7339,-4.7372,-4.7384,-4.7241,-4.7241,-4.7241,0,-4.6762,-4.683,-4.6834,-4.6884,-4.6909,-4.6896,-4.6951,-4.6973,-4.7019,-4.7036,-4.7016,-4.7105,-4.7125,-4.72,-4.7223,-4.724,-4.7255,-4.723,-4.7329,-4.7338,-4.7347,-4.7378,-4.739,-4.7244,-4.7244,-4.7243,-4.7243,0,-4.6872,-4.6919,-4.6959,-4.7005,-4.7035,-4.7087,-4.7098,-4.7127,-4.7124,-4.7135,-4.7198,-4.7222,-4.7266,-4.7284,-4.7281,-4.7359,-4.7347,-4.7328,-4.7293,-4.7362,-4.7392,-4.7403,-4.7248,-4.7247,-4.7246,-4.7245,0,0,-4.6974,-4.7023,-4.7037,-4.7058,-4.7096,-4.7133,-4.7184,-4.7228,-4.7253,-4.7285,-4.7328,-4.7388,-4.7371,-4.7395,-4.7395,-4.743,-4.7501,-4.7407,-4.7407,-4.7424,-4.7588,-4.7603,-4.7617,-4.7493,-4.7495,-4.7497,-4.7586,0,-4.706,-4.7152,-4.7156,-4.724,-4.7284,-4.7271,-4.7316,-4.7344,-4.7356,-4.7394,-4.7405,-4.7449,-4.7422,-4.7437,-4.7471,-4.7485,-4.7534,-4.7479,-4.7533,-4.7535,-4.7526,-4.7632,-4.7648,-4.7731,-4.7597,-4.7599,-4.7601,0,-4.7171,-4.7209,-4.7297,-4.7329,-4.7348,-4.7388,-4.7429,-4.7466,-4.7497,-4.7503,-4.753,-4.7525,-4.7577,-4.7539,-4.7611,-4.7573,-4.7595,-4.7606,-4.7609,-4.7614,-4.7573,-4.7642,-4.7757,-4.777,-4.7619,-4.7617,-4.7616,0,-4.7239,-4.731,-4.7372,-4.7391,-4.743,-4.7459,-4.7476,-4.7505,-4.7531,-4.7567,-4.7584,-4.7624,-4.7646,-4.7677,-4.7683,-4.7655,-4.7754,-4.7717,-4.7761,-4.7761,-4.7783,-4.7781,-4.7904,-4.7796,-4.7796,-4.7795,-4.7795,0,-4.7334,-4.7388,-4.7403,-4.7442,-4.7502,-4.7506,-4.7566,-4.7581,-4.7607,-4.7648,-4.7638,-4.7676,-4.7681,-4.772,-4.7725,-4.7784,-4.7793,-4.7799,-4.78,-4.7801,-4.78,-4.7816,-4.781,-4.7799,-4.7798,-4.7797,-4.7797,0,-4.7419,-4.7431,-4.7499,-4.7531,-4.754,-4.7583,-4.761,-4.7647,-4.7657,-4.7709,-4.7721,-4.7737,-4.7783,-4.7791,-4.7845,-4.7848,-4.7918,-4.7912,-4.7908,-4.7908,-4.7951,-4.7947,-4.8089,-4.8108,-4.7986,-4.7987,-4.7988,0,-4.7479,-4.7521,-4.7559,-4.7586,-4.7605,-4.7649,-4.7676,-4.7681,-4.771,-4.7749,-4.778,-4.7825,-4.7861,-4.7934,-4.795,-4.7991,-4.7987,-4.8033,-4.7993,-4.7992,-4.7988,-4.7986,-4.7991,-4.8041,-4.8043,-4.8044,-4.8045,0,-4.7585,-4.759,-4.763,-4.7673,-4.7706,-4.774,-4.7771,-4.7794,-4.7803,-4.7835,-4.7883,-4.7911,-4.7966,-4.801,-4.8051,-4.8068,-4.8058,-4.8057,-4.807,-4.8071,-4.8068,-4.8071,-4.793,-4.8054,-4.8053,-4.8053,-4.8052,-4.8052,-4.7661,-4.7698,-4.773,-4.7775,-4.78,-4.783,-4.7866,-4.7882,-4.7922,-4.7968,-4.7968,-4.802,-4.805,-4.8104,-4.8123,-4.8163,-4.8148,-4.8165,-4.817,-4.8175,-4.8179,-4.8061,-4.817,-4.817,-4.8169,-4.8169,-4.8169,0,-4.7767,-4.7787,-4.7829,-4.7875,-4.791,-4.7899,-4.7933,-4.7964,-4.801,-4.8039,-4.8075,-4.8129,-4.8173,-4.8192,-4.8235,-4.8263,-4.8259,-4.8274,-4.8272,-4.8276,-4.819,-4.8175,-4.8276,-4.8276,-4.8276,-4.8276,-4.8276,-4.8276,-4.7827,-4.7889,-4.7897,-4.7972,-4.7991,-4.8043,-4.8064,-4.8091,-4.8115,-4.8176,-4.8213,-4.8225,-4.8251,-4.8295,-4.8334,-4.8338,-4.8355,-4.8371,-4.8374,-4.8293,-4.8282,-4.8272,-4.8258,-4.8375,-4.8375,-4.8457,-4.8458,-4.8459]}]]